Weather History for K9D7 - December, 2013

Change the Weather History Date:

Saturday, December 14, 2013

  Actual Average (KDVL) Record (KDVL)
Temperature  
Mean Temperature -6 °F -  
Max Temperature 0 °F 17 °F 42 °F (1998)
Min Temperature -11 °F 2 °F -23 °F (1989)
Degree Days  
Heating Degree Days 70    
Moisture  
Dew Point -11 °F    
Average Humidity 75    
Maximum Humidity 84    
Minimum Humidity 60    
Precipitation  
Precipitation 0.06 in - - ()
Sea Level Pressure  
Sea Level Pressure 30.18 in    
Wind  
Wind Speed 7 mph (North)    
Max Wind Speed 14 mph    
Max Gust Speed -    
Visibility 8 miles    
Events Snow    
Averages and records for this station are not official NWS values.
T = Trace of Precipitation, MM = Missing Value Source: NWS Daily Summary

Daily Weather History Graph

Daily Weather History Graph

Search for Another Location

Airport or City:

Trip Planner

Search our weather history database for the weather conditions in past years. The results will help you decide how hot, cold, wet, or windy it might be!

Date:

Astronomy

Dec. 14, 2013 Rise Set
Actual Time 8:21 AM CST 4:41 PM CST
Civil Twilight 7:44 AM CST 5:18 PM CST
Nautical Twilight 7:04 AM CST 5:58 PM CST
Astronomical Twilight 6:26 AM CST 6:36 PM CST
Moon 3:12 PM CST (12/14) 5:35 AM CST (12/14)
Length of Visible Light 9h 34m
Length of Day
8h 20m
Waxing Gibbous, 94% of the Moon is Illuminated
Dec 14
Waxing Gibbous
Dec 17
Full
Dec 25
Last Quarter
Jan 1
New
Jan 7
First Quarter

Hourly Weather History & Observations

Time (CST) Temp. Windchill Dew Point Humidity Pressure Visibility Wind Dir Wind Speed Gust Speed Precip Events Conditions
12:15 AM -7.6 °F -23.4 °F -13.0 °F 77% 30.29 in 10.0 mi SE 8.1 mph - N/A   Mostly Cloudy
12:35 AM -7.6 °F -18.8 °F -13.0 °F 77% 30.30 in 10.0 mi SE 4.6 mph - N/A   Overcast
12:55 AM -7.6 °F -20.6 °F -13.0 °F 77% 30.29 in 10.0 mi SE 5.8 mph - N/A Snow Light Snow
1:15 AM -7.6 °F -16.5 °F -13.0 °F 77% 30.29 in 7.0 mi SE 3.5 mph - N/A Snow Light Snow
1:35 AM -7.6 °F -18.8 °F -13.0 °F 77% 30.28 in 3.0 mi SE 4.6 mph - 0.01 in Snow Light Snow
1:55 AM -7.6 °F -18.8 °F -13.0 °F 77% 30.27 in 3.0 mi SE 4.6 mph - 0.02 in Snow Light Snow
2:15 AM -7.6 °F -16.5 °F -11.2 °F 84% 30.26 in 4.0 mi SSE 3.5 mph - N/A Snow Light Snow
2:35 AM -7.6 °F -18.8 °F - N/A% 30.25 in 3.0 mi SE 4.6 mph - 0.01 in Snow Light Snow
2:55 AM -7.6 °F -20.6 °F -11.2 °F 84% 30.24 in 4.0 mi SSE 5.8 mph - 0.01 in Snow Light Snow
3:15 AM -5.8 °F -19.9 °F -11.2 °F 77% 30.24 in 6.0 mi SE 6.9 mph - N/A Snow Light Snow
3:35 AM -5.8 °F -19.9 °F -11.2 °F 77% 30.23 in 8.0 mi SSE 6.9 mph - N/A Snow Light Snow
3:55 AM -5.8 °F -18.4 °F -11.2 °F 77% 30.23 in 10.0 mi SSE 5.8 mph - N/A   Overcast
4:15 AM -5.8 °F -18.4 °F -11.2 °F 77% 30.23 in 7.0 mi SSE 5.8 mph - N/A Snow Light Snow
4:35 AM -5.8 °F -16.7 °F -11.2 °F 77% 30.22 in 10.0 mi SSE 4.6 mph - N/A   Overcast
4:55 AM -5.8 °F -21.2 °F -11.2 °F 77% 30.20 in 10.0 mi SSE 8.1 mph - N/A   Overcast
5:15 AM -4.0 °F -17.8 °F -11.2 °F 71% 30.20 in 10.0 mi South 6.9 mph - N/A   Overcast
5:35 AM -4.0 °F -17.8 °F -11.2 °F 71% 30.19 in 10.0 mi South 6.9 mph - N/A   Overcast
5:55 AM -4.0 °F -19.0 °F -9.4 °F 78% 30.19 in 10.0 mi South 8.1 mph - N/A   Overcast
6:15 AM -4.0 °F -17.8 °F -9.4 °F 78% 30.18 in 10.0 mi SW 6.9 mph - N/A   Overcast
6:35 AM -4.0 °F -17.8 °F -11.2 °F 71% 30.19 in 8.0 mi SW 6.9 mph - N/A Snow Light Snow
6:55 AM -4.0 °F -16.3 °F -9.4 °F 78% 30.19 in 3.0 mi SW 5.8 mph - N/A Snow Light Snow
7:15 AM -4.0 °F -12.4 °F -9.4 °F 78% 30.18 in 3.0 mi SW 3.5 mph - N/A Snow Light Snow
7:35 AM -4.0 °F -14.6 °F -9.4 °F 78% 30.18 in 10.0 mi WSW 4.6 mph - N/A   Overcast
7:55 AM -4.0 °F -16.3 °F -9.4 °F 78% 30.18 in 10.0 mi West 5.8 mph - N/A   Overcast
8:15 AM -4.0 °F -16.3 °F -9.4 °F 78% 30.17 in 10.0 mi WSW 5.8 mph - N/A   Overcast
8:35 AM -4.0 °F -17.8 °F -9.4 °F 78% 30.18 in 10.0 mi West 6.9 mph - N/A   Overcast
8:55 AM -4.0 °F -16.3 °F -9.4 °F 78% 30.17 in 9.0 mi West 5.8 mph - N/A   Overcast
9:15 AM -4.0 °F -16.3 °F -9.4 °F 78% 30.17 in 4.0 mi West 5.8 mph - N/A   Haze
9:35 AM -2.2 °F -15.6 °F -9.4 °F 71% 30.17 in 5.0 mi West 6.9 mph - N/A   Haze
9:55 AM -2.2 °F -16.8 °F -7.6 °F 78% 30.18 in 2.5 mi WNW 8.1 mph - N/A Snow Light Snow
10:15 AM -2.2 °F -18.0 °F -7.6 °F 78% 30.17 in 2.5 mi NW 9.2 mph - N/A Snow Light Snow
10:35 AM -2.2 °F -18.9 °F -7.6 °F 78% 30.18 in 3.0 mi NW 10.4 mph - N/A Snow Light Snow
10:55 AM -2.2 °F -18.0 °F -7.6 °F 78% 30.17 in 4.0 mi NW 9.2 mph - N/A Snow Light Snow
11:15 AM -2.2 °F -19.9 °F -7.6 °F 78% 30.17 in 4.0 mi NW 11.5 mph - N/A Snow Light Snow
11:35 AM -2.2 °F -20.7 °F -9.4 °F 71% 30.17 in 5.0 mi NNW 12.7 mph - N/A Snow Light Snow
11:55 AM -2.2 °F -20.7 °F -9.4 °F 71% 30.16 in 8.0 mi NNW 12.7 mph - N/A   Overcast
12:15 PM -2.2 °F -20.7 °F -9.4 °F 71% 30.15 in 10.0 mi North 12.7 mph - N/A   Mostly Cloudy
12:35 PM -2.2 °F -20.7 °F -9.4 °F 71% 30.15 in 10.0 mi North 12.7 mph - N/A   Partly Cloudy
12:55 PM -2.2 °F -20.7 °F -11.2 °F 66% 30.15 in 10.0 mi North 12.7 mph - N/A   Clear
1:15 PM -2.2 °F -20.7 °F -11.2 °F 66% 30.14 in 10.0 mi North 12.7 mph - N/A   Clear
1:35 PM -2.2 °F -21.5 °F -11.2 °F 66% 30.14 in 10.0 mi North 13.8 mph - N/A   Partly Cloudy
1:55 PM -0.4 °F -19.2 °F -9.4 °F 66% 30.15 in 10.0 mi North 13.8 mph - N/A   Clear
2:15 PM -0.4 °F -18.4 °F -11.2 °F 60% 30.14 in 10.0 mi North 12.7 mph - N/A   Clear
2:35 PM -2.2 °F -20.7 °F -11.2 °F 66% 30.13 in 10.0 mi North 12.7 mph - N/A   Mostly Cloudy
2:55 PM -2.2 °F -20.7 °F -11.2 °F 66% 30.15 in 10.0 mi North 12.7 mph - N/A   Mostly Cloudy
3:15 PM -2.2 °F -18.9 °F -11.2 °F 66% 30.15 in 10.0 mi North 10.4 mph - N/A   Clear
3:35 PM -2.2 °F -18.0 °F -11.2 °F 66% 30.15 in 10.0 mi North 9.2 mph - N/A   Scattered Clouds
3:55 PM -4.0 °F -21.2 °F -11.2 °F 71% 30.15 in 10.0 mi North 10.4 mph - N/A   Overcast
4:15 PM -4.0 °F -21.2 °F -11.2 °F 71% 30.15 in 10.0 mi North 10.4 mph - N/A   Overcast
4:35 PM -5.8 °F -23.4 °F -13.0 °F 71% 30.15 in 10.0 mi North 10.4 mph - N/A   Overcast
4:55 PM -5.8 °F -23.4 °F - N/A% 30.15 in 10.0 mi North 10.4 mph - N/A   Overcast
5:15 PM -7.6 °F -26.6 °F -13.0 °F 77% 30.15 in 10.0 mi North 11.5 mph - N/A   Overcast
5:35 PM -7.6 °F -25.7 °F -13.0 °F 77% 30.15 in 10.0 mi North 10.4 mph - N/A   Overcast
5:55 PM -7.6 °F -26.6 °F -13.0 °F 77% 30.15 in 10.0 mi North 11.5 mph - N/A   Overcast
6:15 PM -7.6 °F -23.4 °F -13.0 °F 77% 30.14 in 10.0 mi North 8.1 mph - N/A   Overcast
6:35 PM -9.4 °F -25.6 °F -16.6 °F 71% 30.14 in 10.0 mi NNE 8.1 mph - N/A   Overcast
6:55 PM -11.2 °F -27.8 °F -16.6 °F 77% 30.15 in 10.0 mi NNE 8.1 mph - N/A   Overcast
7:15 PM -11.2 °F -24.8 °F -16.6 °F 77% 30.15 in 10.0 mi North 5.8 mph - N/A   Overcast
7:35 PM -9.4 °F -25.6 °F -14.8 °F 77% 30.15 in 10.0 mi North 8.1 mph - N/A   Overcast
7:55 PM -7.6 °F -23.4 °F -13.0 °F 77% 30.15 in 10.0 mi North 8.1 mph - N/A   Overcast
8:15 PM -7.6 °F -23.4 °F -13.0 °F 77% 30.14 in 10.0 mi NNE 8.1 mph - N/A   Overcast
8:35 PM -5.8 °F -21.2 °F -11.2 °F 77% 30.15 in 10.0 mi NNE 8.1 mph - N/A   Overcast
8:55 PM -5.8 °F -21.2 °F -11.2 °F 77% 30.16 in 10.0 mi NNE 8.1 mph - N/A   Overcast
9:15 PM -5.8 °F -22.4 °F -11.2 °F 77% 30.16 in 10.0 mi NNE 9.2 mph - N/A   Overcast
9:35 PM -5.8 °F -19.9 °F - N/A% 30.16 in 10.0 mi NNE 6.9 mph - N/A   Overcast
9:55 PM -5.8 °F -22.4 °F - N/A% 30.16 in 10.0 mi NE 9.2 mph - N/A   Overcast
10:15 PM -5.8 °F -21.2 °F -11.2 °F 77% 30.15 in 10.0 mi NE 8.1 mph - N/A   Overcast
10:35 PM -5.8 °F -21.2 °F -11.2 °F 77% 30.14 in 7.0 mi NE 8.1 mph - N/A Snow Light Snow
10:55 PM -5.8 °F -21.2 °F -11.2 °F 77% 30.14 in 4.0 mi NE 8.1 mph - 0.03 in Snow Light Snow
11:15 PM -5.8 °F -21.2 °F -11.2 °F 77% 30.15 in 10.0 mi NE 8.1 mph - N/A   Overcast
11:35 PM -5.8 °F -18.4 °F -11.2 °F 77% 30.14 in 10.0 mi ENE 5.8 mph - N/A   Overcast
11:55 PM -5.8 °F -21.2 °F - N/A% 30.15 in 10.0 mi ENE 8.1 mph - N/A   Overcast